• In Italy
  • List of Countries
  • For 7 days
  • Water Temperature
  • Satellite Maps
  • Weather Map
  • Weather Widgets
  • user-avatar
    Login

    Hourly Weather Mendoza

    Today, 22 November, Wednesday

    Time Temperature Precipitation Wind Pressure Humidity
    00:00 +21°C° 0 mm 2 mps 699 mmHg 21%
    01:00 +20°C° 0 mm 2 mps 698 mmHg 21%
    02:00 +19°C° 0 mm 2 mps 698 mmHg 22%
    03:00 +19°C° 0 mm 2 mps 698 mmHg 23%
    04:00 +19°C° 0 mm 1 mps 697 mmHg 24%
    05:00 +21°C° 0 mm 1 mps 697 mmHg 21%
    06:00 +21°C° 0 mm 2 mps 698 mmHg 19%
    07:00 +24°C° 0 mm 2 mps 698 mmHg 17%
    08:00 +26°C° 0 mm 2 mps 698 mmHg 16%
    09:00 +27°C° 0 mm 3 mps 698 mmHg 15%
    10:00 +29°C° 0 mm 4 mps 697 mmHg 13%
    11:00 +30°C° 0 mm 4 mps 697 mmHg 13%
    12:00 +32°C° 0 mm 5 mps 696 mmHg 12%
    13:00 +33°C° 0 mm 5 mps 696 mmHg 12%
    14:00 +33°C° 0 mm 5 mps 695 mmHg 12%
    15:00 +34°C° 0 mm 4 mps 695 mmHg 12%
    16:00 +34°C° 0 mm 4 mps 694 mmHg 12%
    17:00 +31°C° 0 mm 3 mps 695 mmHg 13%
    18:00 +30°C° 0 mm 3 mps 695 mmHg 15%
    19:00 +28°C° 0 mm 2 mps 695 mmHg 16%
    20:00 +28°C° 0 mm 2 mps 695 mmHg 17%
    21:00 +27°C° 0 mm 2 mps 695 mmHg 17%
    22:00 +26°C° 0 mm 2 mps 695 mmHg 18%
    23:00 +26°C° 0 mm 2 mps 695 mmHg 18%

    Tomorrow, 23 November, Thursday

    Time Temperature Precipitation Wind Pressure Humidity
    00:00 +25°C° 0 mm 2 mps 695 mmHg 18%
    01:00 +24°C° 0 mm 3 mps 694 mmHg 18%
    02:00 +24°C° 0 mm 3 mps 694 mmHg 18%
    03:00 +22°C° 0 mm 3 mps 694 mmHg 17%
    04:00 +22°C° 0 mm 3 mps 695 mmHg 17%
    05:00 +23°C° 0 mm 4 mps 695 mmHg 16%
    06:00 +26°C° 0 mm 4 mps 696 mmHg 15%
    07:00 +27°C° 0 mm 5 mps 696 mmHg 14%
    08:00 +28°C° 0 mm 5 mps 696 mmHg 14%
    09:00 +30°C° 0 mm 5 mps 696 mmHg 14%
    10:00 +32°C° 0 mm 6 mps 697 mmHg 14%
    11:00 +33°C° 0 mm 6 mps 696 mmHg 14%
    12:00 +34°C° 0 mm 5 mps 696 mmHg 14%
    13:00 +34°C° 0 mm 5 mps 696 mmHg 14%
    14:00 +34°C° 0 mm 6 mps 695 mmHg 15%
    15:00 +34°C° 0 mm 6 mps 695 mmHg 15%
    16:00 +34°C° 0 mm 6 mps 695 mmHg 16%
    17:00 +32°C° 0 mm 6 mps 695 mmHg 18%
    18:00 +30°C° 0 mm 6 mps 696 mmHg 20%
    19:00 +28°C° 0 mm 6 mps 696 mmHg 22%
    20:00 +27°C° 0 mm 5 mps 697 mmHg 23%
    21:00 +26°C° 0 mm 5 mps 697 mmHg 23%
    22:00 +25°C° 0 mm 4 mps 697 mmHg 24%
    23:00 +23°C° 0 mm 4 mps 697 mmHg 27%

    Day after tomorrow, 24 November, Friday

    Time Temperature Precipitation Wind Pressure Humidity
    00:00 +22°C° 0 mm 5 mps 696 mmHg 29%
    01:00 +21°C° 0 mm 5 mps 696 mmHg 31%
    02:00 +20°C° 0 mm 5 mps 696 mmHg 34%
    03:00 +20°C° 0 mm 4 mps 695 mmHg 36%
    04:00 +19°C° 0 mm 4 mps 695 mmHg 39%
    05:00 +20°C° 0 mm 4 mps 695 mmHg 38%
    06:00 +21°C° 0 mm 5 mps 696 mmHg 37%
    07:00 +22°C° 0 mm 5 mps 696 mmHg 36%
    08:00 +23°C° 0 mm 5 mps 696 mmHg 32%
    09:00 +26°C° 0 mm 6 mps 697 mmHg 29%
    10:00 +27°C° 0 mm 6 mps 697 mmHg 26%
    11:00 +28°C° 0 mm 6 mps 697 mmHg 23%
    12:00 +29°C° 0 mm 5 mps 696 mmHg 20%
    13:00 +30°C° 0 mm 5 mps 696 mmHg 18%
    14:00 +32°C° 0 mm 5 mps 696 mmHg 17%
    15:00 +32°C° 0 mm 5 mps 696 mmHg 16%
    16:00 +32°C° 0 mm 5 mps 696 mmHg 15%
    17:00 +30°C° 0 mm 4 mps 696 mmHg 17%
    18:00 +29°C° 0 mm 3 mps 697 mmHg 19%
    19:00 +28°C° 0 mm 2 mps 698 mmHg 21%
    20:00 +27°C° 0 mm 2 mps 698 mmHg 23%
    21:00 +26°C° 0 mm 2 mps 698 mmHg 24%
    22:00 +25°C° 0 mm 2 mps 699 mmHg 26%
    23:00 +25°C° 0 mm 2 mps 699 mmHg 30%

    25 November, Saturday

    Time Temperature Precipitation Wind Pressure Humidity
    00:00 +24°C° 0 mm 1 mps 698 mmHg 33%
    01:00 +23°C° 0 mm 1 mps 698 mmHg 37%
    02:00 +22°C° 0 mm 1 mps 698 mmHg 38%
    03:00 +21°C° 0 mm 2 mps 698 mmHg 39%
    04:00 +20°C° 0 mm 2 mps 698 mmHg 40%
    05:00 +23°C° 0 mm 2 mps 699 mmHg 36%
    06:00 +24°C° 0 mm 2 mps 700 mmHg 32%
    07:00 +26°C° 0 mm 2 mps 700 mmHg 29%
    08:00 +27°C° 0 mm 3 mps 700 mmHg 26%
    09:00 +28°C° 0 mm 3 mps 700 mmHg 23%
    10:00 +30°C° 0 mm 4 mps 700 mmHg 20%
    11:00 +32°C° 0 mm 4 mps 699 mmHg 19%
    12:00 +33°C° 0 mm 4 mps 699 mmHg 18%
    13:00 +34°C° 0 mm 4 mps 698 mmHg 16%
    14:00 +34°C° 0 mm 4 mps 698 mmHg 16%
    15:00 +34°C° 0 mm 5 mps 697 mmHg 16%
    16:00 +34°C° 0 mm 5 mps 697 mmHg 16%
    17:00 +33°C° 0 mm 4 mps 697 mmHg 18%
    18:00 +32°C° 0 mm 4 mps 697 mmHg 19%
    19:00 +30°C° 0 mm 3 mps 698 mmHg 21%
    20:00 +29°C° 0 mm 3 mps 698 mmHg 22%
    21:00 +28°C° 0 mm 3 mps 698 mmHg 24%
    22:00 +27°C° 0 mm 2 mps 698 mmHg 26%
    23:00 +26°C° 0 mm 2 mps 697 mmHg 27%

    26 November, Sunday

    Time Temperature Precipitation Wind Pressure Humidity
    00:00 +25°C° 0 mm 2 mps 697 mmHg 29%
    01:00 +24°C° 0 mm 1 mps 696 mmHg 31%
    02:00 +23°C° 0 mm 1 mps 696 mmHg 30%
    03:00 +23°C° 0 mm 2 mps 695 mmHg 30%
    04:00 +23°C° 0 mm 2 mps 695 mmHg 29%
    05:00 +24°C° 0 mm 2 mps 695 mmHg 26%
    06:00 +26°C° 0 mm 2 mps 696 mmHg 23%
    07:00 +27°C° 0 mm 1 mps 696 mmHg 20%
    08:00 +29°C° 0 mm 2 mps 696 mmHg 18%
    09:00 +31°C° 0 mm 3 mps 695 mmHg 16%
    10:00 +33°C° 0 mm 4 mps 695 mmHg 14%
    11:00 +34°C° 0 mm 4 mps 694 mmHg 14%
    12:00 +35°C° 0 mm 4 mps 694 mmHg 13%
    13:00 +36°C° 0 mm 4 mps 693 mmHg 12%
    14:00 +36°C° 0 mm 4 mps 693 mmHg 12%
    15:00 +37°C° 0 mm 3 mps 693 mmHg 12%
    16:00 +37°C° 0 mm 3 mps 692 mmHg 12%
    17:00 +35°C° 0 mm 3 mps 693 mmHg 14%
    18:00 +34°C° 0 mm 2 mps 693 mmHg 15%
    19:00 +32°C° 0 mm 2 mps 693 mmHg 16%
    20:00 +31°C° 0 mm 3 mps 694 mmHg 17%
    21:00 +31°C° 0 mm 3 mps 694 mmHg 17%
    22:00 +32°C° 0 mm 4 mps 694 mmHg 17%
    23:00 +30°C° 0.2 mm 6 mps 694 mmHg 19%

    27 November, Monday

    Time Temperature Precipitation Wind Pressure Humidity
    00:00 +28°C° 0.2 mm 7 mps 694 mmHg 21%
    01:00 +27°C° 0.2 mm 9 mps 694 mmHg 24%
    02:00 +26°C° 0 mm 8 mps 695 mmHg 26%
    03:00 +24°C° 0 mm 8 mps 696 mmHg 28%
    04:00 +23°C° 0 mm 7 mps 696 mmHg 30%
    05:00 +23°C° 0 mm 7 mps 697 mmHg 31%
    06:00 +23°C° 0 mm 7 mps 698 mmHg 32%
    07:00 +22°C° 0 mm 7 mps 698 mmHg 33%
    08:00 +23°C° 0 mm 7 mps 699 mmHg 32%
    09:00 +24°C° 0 mm 7 mps 699 mmHg 31%
    10:00 +26°C° 0 mm 7 mps 699 mmHg 29%
    11:00 +26°C° 0.1 mm 7 mps 699 mmHg 29%
    12:00 +26°C° 0.1 mm 7 mps 699 mmHg 30%
    13:00 +27°C° 0.1 mm 7 mps 698 mmHg 30%
    14:00 +26°C° 0.2 mm 6 mps 699 mmHg 31%
    15:00 +26°C° 0.2 mm 6 mps 699 mmHg 32%
    16:00 +26°C° 0.2 mm 6 mps 699 mmHg 32%
    17:00 +25°C° 0.2 mm 5 mps 699 mmHg 33%
    18:00 +23°C° 0.2 mm 4 mps 700 mmHg 34%
    19:00 +22°C° 0.2 mm 4 mps 701 mmHg 35%
    20:00 +22°C° 0.1 mm 3 mps 701 mmHg 37%
    21:00 +21°C° 0.1 mm 3 mps 701 mmHg 38%
    22:00 +20°C° 0.1 mm 3 mps 701 mmHg 40%
    23:00 +20°C° 0 mm 2 mps 701 mmHg 42%
    Show more